Location: Courcelles
(49.2596°N, 1.7419°E)
Time: 03:06:02
(UTC+00:00)

Cosmos 2221 Rocket - Pass Details

Date: 17 November 2025
Orbit: 615 x 642 km, 82.5° (Epoch: 04 December)

Event Time Altitude Azimuth Distance (km) Brightness Sun altitude
Rises 16:39:45 0° 347° (NNW) 2,944 6.9 -5.4°
Reaches altitude 10° 16:42:01 10° 344° (NNW) 2,026 6.1 -5.7°
Maximum altitude 16:46:27 62° 264° (W) 714 4.3 -6.4°
Drops below altitude 10° 16:50:48 10° 185° (S) 1,993 6.5 -7.0°
Sets 16:53:02 0° 182° (S) 2,890 7.3 -7.4°
